Weather observations for the past three days for
Rockingham-Hamlet Airport
Imperial (Metric)
Date Time (edt) Wind (mph) Vis. (mi.) Weather Sky Cond. Temperature (ºF) Relative Humidity Wind Chill (°F) Heat Index (°F) Pressure Precipitation (in)
Air Dwpt 6 hour altimeter (in) sea level (mb) 1 hr 3 hr 6 hr
Max. Min.
25 11:25 SW 6 10.00 Overcast SCT009 OVC013 78.6 73.9 86% 82 30.18 0.0
25 11:05 SW 7 10.00 Overcast OVC009 77 73.6 89% 78 30.19 0.0
25 10:45 SW 6 10.00 Overcast BKN007 OVC012 76.3 73.6 91% 76 30.19 0.0
25 10:25 SW 6 10.00 Mostly Cloudy BKN007 75.9 73.6 93% 76 30.19 0.0
25 10:05 S 6 10.00 Mostly Cloudy BKN005 75.2 73.2 94% 74 30.19 0.0
25 09:45 SW 6 10.00 Mostly Cloudy BKN005 BKN009 BKN019 75.2 73.4 94% 74 30.2 0.0
25 09:25 SW 6 10.00 Overcast SCT007 SCT011 OVC019 75.2 73.4 94% 74 30.21 0.0
25 09:05 S 6 10.00 Overcast BKN007 BKN015 OVC023 75.2 73.4 94% 74 30.21 0.0
25 08:45 S 5 10.00 Overcast OVC007 75.2 73.2 94% 74 30.2 0.0
25 08:25 S 5 10.00 Overcast BKN005 OVC010 75.2 73.4 94% 74 30.2 0.0
25 08:05 S 5 10.00 Overcast SCT005 OVC014 74.8 73.4 95% 30.19 0.0
25 07:45 S 5 10.00 Partly Cloudy SCT016 74.8 73.4 95% 30.19 0.0
25 07:25 S 5 10.00 Fair CLR 74.8 73 94% 30.18 0.0
25 07:05 S 3 10.00 Fair CLR 74.8 73.4 95% 30.18 0.0
25 06:45 Calm 10.00 Partly Cloudy SCT031 74.8 73.2 95% 30.18 0.0
25 06:25 Calm 10.00 Partly Cloudy SCT031 SCT044 SCT060 74.8 72.9 94% 30.17 0.0
25 06:05 Calm 10.00 Partly Cloudy SCT021 SCT044 SCT050 74.8 72.9 94% 30.17 0.0
25 05:45 S 3 10.00 Partly Cloudy SCT050 SCT060 74.8 72.9 94% 30.18 0.0
25 05:25 Calm 10.00 Fair CLR 74.8 72.9 94% 30.18 0.0
25 05:05 Calm 10.00 Fair CLR 75.2 72.9 92% 74 30.18 0.0
25 04:45 Calm 10.00 Fair CLR 75.2 72.7 92% 74 30.18 0.0
25 04:25 Calm 10.00 Mostly Cloudy BKN014 75.2 72.9 92% 74 30.18 0.0
25 04:05 S 3 10.00 Overcast OVC014 75.2 72.9 92% 74 30.19 0.0
25 03:45 Calm 10.00 Mostly Cloudy BKN016 BKN021 BKN028 75.2 72.9 92% 74 30.18 0.0
25 03:25 Calm 10.00 Overcast BKN014 BKN019 OVC028 75.2 72.9 92% 74 30.18 0.0
25 03:05 Calm 10.00 Overcast SCT014 BKN021 OVC026 75.2 72.9 92% 74 30.19 0.0
25 02:45 Calm 10.00 Mostly Cloudy SCT014 BKN023 BKN034 75.2 72.9 92% 74 30.2 0.0
25 02:25 Calm 10.00 Mostly Cloudy BKN025 BKN032 BKN040 75.2 72.9 92% 74 30.2 0.0
25 02:05 Calm 10.00 Mostly Cloudy SCT025 BKN031 BKN039 75.2 72.7 92% 74 30.2 0.0
25 01:45 Calm 10.00 Partly Cloudy SCT025 SCT046 75 72.9 93% 74 30.2 0.0
25 01:25 SW 3 10.00 Fair CLR 75.2 72.9 92% 74 30.2 0.0
25 00:45 SW 5 10.00 Fair CLR 75.6 72.5 90% 75 30.2 0.0
25 00:25 SW 6 10.00 Fair CLR 75.9 72.7 90% 76 30.21 0.0
24 23:45 S 3 10.00 Fair CLR 76.1 72.3 88% 76 30.21 0.0
24 23:25 Calm 10.00 Fair CLR 76.1 72.3 88% 76 30.2 0.0
24 23:05 SW 6 10.00 Fair CLR 76.3 72.3 88% 77 30.21 0.0
24 22:45 S 5 10.00 Fair CLR 76.6 72.1 86% 78 30.21 0.0
24 22:25 S 6 10.00 Fair CLR 76.6 72.1 86% 78 30.21 0.0
24 22:05 SW 6 10.00 Fair CLR 77 72 85% 78 30.2 0.0
24 21:45 SW 5 10.00 Fair CLR 77 72.1 85% 78 30.2 0.0
24 21:25 SW 6 10.00 Fair CLR 77.5 72 83% 79 30.19 0.0
24 21:05 SW 5 10.00 Fair CLR 77.9 71.8 82% 80 30.18 0.0
24 20:45 SW 8 10.00 Fair CLR 78.4 72 81% 81 30.18 0.0
24 20:25 S 6 10.00 Fair CLR 79.3 72.1 79% 83 30.17 0.0
24 20:05 S 8 10.00 Fair CLR 80.6 72.9 77% 85 30.17 0.0
24 19:45 S 9 10.00 Fair CLR 81.9 73.2 75% 87 30.16 0.0
24 19:25 SW 9 G 20 10.00 Partly Cloudy SCT047 SCT050 82.9 73.4 73% 89 30.16 0.0
24 19:05 S 10 G 17 10.00 Partly Cloudy SCT003 SCT046 SCT050 84.6 74.1 71% 92 30.16 0.0
24 18:45 S 13 G 18 10.00 Partly Cloudy SCT003 84.9 75.9 75% 94 30.15 0.0
24 18:25 S 14 10.00 Partly Cloudy SCT043 SCT060 88.2 75.4 66% 98 30.14 0.0
24 18:05 S 10 10.00 Partly Cloudy SCT043 SCT060 90 73.8 59% 99 30.13 0.0
24 17:45 S 9 10.00 Partly Cloudy SCT038 SCT048 SCT060 91.6 73.9 56% 101 30.13 0.0
24 17:25 SW 5 10.00 Partly Cloudy SCT050 SCT060 91.9 71.2 51% 99 30.13 0.0
24 17:05 SW 7 10.00 Partly Cloudy SCT045 SCT050 92.1 71.6 51% 99 30.14 0.0
24 16:45 SW 7 10.00 Partly Cloudy SCT047 SCT050 91.9 72.3 53% 100 30.14 0.0
24 16:25 S 7 10.00 Partly Cloudy SCT047 90.9 71.8 54% 98 30.14 0.0
24 16:05 W 7 10.00 Partly Cloudy SCT042 SCT047 91.4 72.3 54% 99 30.14 0.0
24 15:45 SW 7 10.00 Mostly Cloudy BKN042 89.8 72 56% 97 30.14 0.0
24 15:25 S 8 10.00 Partly Cloudy SCT042 90.1 72 55% 97 30.16 0.0
24 15:05 SW 8 10.00 Fair CLR 89.8 72.7 57% 98 30.16 0.0
24 14:45 SW 7 10.00 Fair CLR 89.4 72.5 58% 97 30.16 0.0
24 14:25 SW 10 10.00 Fair CLR 89.2 73.4 60% 98 30.17 0.0
24 14:05 S 6 10.00 Fair CLR 88 72.9 61% 96 30.17 0.0
24 13:45 S 9 10.00 Fair CLR 87.4 72.7 62% 95 30.18 0.0
24 13:25 SW 7 10.00 Fair CLR 86.2 72.5 64% 93 30.19 0.0
24 12:45 SW 9 10.00 Fair CLR 85.3 73.9 69% 93 30.2 0.0
24 12:25 SW 10 10.00 Fair CLR 83.8 74.5 74% 91 30.21 0.0
24 12:05 SW 8 10.00 Fair CLR 83.3 73.9 73% 90 30.2 0.0
24 11:45 SW 9 10.00 Fair CLR 82.6 74.7 77% 89 30.2 0.0
24 11:25 SW 12 10.00 Fair CLR 81.5 74.1 78% 87 30.21 0.0
24 11:05 SW 9 10.00 Fair CLR 80.1 73.6 81% 84 30.21 0.0
24 10:45 SW 8 10.00 Partly Cloudy SCT010 79.7 73.9 83% 84 30.2 0.0
24 10:25 SW 8 10.00 Partly Cloudy SCT008 SCT014 78.3 72.9 84% 81 30.2 0.0
24 10:05 SW 6 10.00 Mostly Cloudy BKN006 BKN012 77.5 73.6 88% 79 30.2 0.0
24 09:45 S 3 10.00 Mostly Cloudy BKN006 75.4 73 92% 74 30.19 0.0
24 09:25 SW 7 10.00 Overcast OVC006 74.5 72.1 92% 30.19 0.0
24 09:05 S 5 10.00 Overcast OVC004 73.9 72 94% 30.19 0.0
24 08:45 S 5 10.00 Overcast OVC004 73.4 71.8 95% 30.19 0.0
24 08:25 S 5 10.00 Overcast OVC004 72.7 71.4 96% 30.19 0.0
24 08:05 S 6 10.00 Overcast OVC004 72.5 71.4 96% 30.19 0.0
24 07:45 S 8 10.00 Overcast OVC004 72.5 71.6 97% 30.18 0.0
24 07:25 S 7 10.00 Overcast OVC004 72.3 71.4 97% 30.18 0.0
24 07:05 S 6 10.00 Mostly Cloudy BKN002 72 71.1 97% 30.17 0.0
24 06:45 S 6 10.00 Mostly Cloudy BKN002 71.8 70.9 97% 30.17 0.0
24 06:25 S 7 10.00 Partly Cloudy SCT002 72 70.9 96% 30.16 0.0
24 06:05 S 5 10.00 Fair CLR 72.1 70.9 96% 30.16 0.0
24 05:45 Calm 10.00 Fair CLR 72.1 70.9 96% 30.16 0.0
24 05:05 S 3 10.00 Mostly Cloudy BKN004 BKN010 72.7 71.2 95% 30.14 0.0
24 04:45 Calm 7.00 Overcast OVC004 72.5 71.6 97% 30.15 0.0 0.07
24 04:25 Calm 7.00 Overcast OVC004 72.3 71.2 96% 30.16 0.0 0.04
24 04:05 SW 6 4.00 Overcast OVC006 72.5 71.2 96% 30.18 0.0 0.02
24 03:45 S 7 5.00 Overcast OVC006 72.5 71.6 97% 30.18 0.0 0.09
24 03:25 SW 10 5.00 Mostly Cloudy BKN004 BKN008 72.9 71.8 96% 30.18 0.0 0.06
24 03:05 SW 8 1.25 Overcast BKN004 OVC010 73 72 96% 30.16 0.0 0.01
24 02:45 SW 18 G 32 0.75 Overcast OVC006 73.4 71.8 95% 30.18 0.0 0.43
24 02:25 S 7 10.00 Partly Cloudy SCT003 SCT013 SCT043 75.2 74.3 97% 73 30.15 0.0 0.02
24 02:05 S 7 5.00 Mostly Cloudy BKN003 BKN013 BKN033 75.4 74.3 96% 74 30.14 0.0 0.02
24 01:45 S 6 10.00 Overcast BKN035 OVC043 75.4 74.3 96% 74 30.15 0.0
24 01:25 SE 8 10.00 Mostly Cloudy BKN043 BKN050 75.4 73.9 95% 74 30.16 0.0
24 01:05 S 3 10.00 Mostly Cloudy SCT005 SCT035 BKN050 76.1 74.3 94% 76 30.15 0.0
24 00:45 Calm 10.00 Mostly Cloudy SCT007 SCT027 BKN047 75.4 74.1 96% 74 30.14 0.0 0.06
24 00:25 SE 5 10.00 Partly Cloudy SCT050 76.1 74.3 94% 76 30.15 0.0
24 00:05 SE 5 10.00 Partly Cloudy SCT050 76.5 74.5 94% 77 30.15 0.0
23 23:45 SE 3 10.00 Partly Cloudy SCT060 SCT075 76.5 74.7 94% 77 30.15 0.0
23 23:25 Calm 10.00 Mostly Cloudy SCT044 BKN060 76.3 74.5 94% 76 30.14 0.0
23 23:05 SW 3 10.00 Mostly Cloudy SCT004 SCT008 BKN060 77.2 74.3 91% 79 30.13 0.0
23 22:45 SW 5 10.00 Mostly Cloudy SCT006 SCT012 BKN050 77.2 74.1 90% 79 30.13 0.0 0.08
23 22:25 SE 5 10.00 Partly Cloudy SCT050 SCT060 SCT070 78.3 74.3 88% 81 30.11 0.0
23 22:05 SE 3 10.00 Partly Cloudy SCT070 SCT080 78.1 73.8 87% 81 30.11 0.0
23 21:45 SE 5 10.00 Fair CLR 78.3 74.3 88% 81 30.11 0.0
23 21:25 S 3 10.00 Fair CLR 79 73.4 83% 82 30.11 0.0
23 21:05 Calm 10.00 Fair CLR 79.3 73.6 83% 83 30.11 0.0
23 20:45 Calm 10.00 Fair CLR 79.7 74.1 83% 84 30.1 0.0
23 20:25 Calm 10.00 Fair CLR 78.8 75 88% 82 30.09 0.0
23 20:05 Calm 10.00 Fair CLR 79.7 73.8 82% 84 30.08 0.0
23 19:45 S 3 10.00 Fair CLR 80.2 73.6 80% 85 30.07 0.0
23 19:25 Calm 10.00 Fair CLR 80.8 73.4 78% 86 30.08 0.0
23 19:05 SE 6 10.00 Fair CLR 82 74.5 78% 88 30.07 0.0
23 18:45 S 3 10.00 Fair CLR 82.4 75.4 79% 90 30.07 0.0 0.14
23 18:25 Calm 10.00 Partly Cloudy SCT004 SCT010 SCT013 81.3 72.9 76% 86 30.07 0.0 0.14
23 18:05 SW 9 G 29 1.25 Mostly Cloudy SCT006 BKN010 BKN048 77.4 72.7 86% 79 30.08 0.0 0.11
23 17:45 S 16 G 22 10.00 Fair CLR 88 72 59% 95 30.06 0.0
23 17:25 S 8 10.00 Fair CLR 87.1 70.9 59% 93 30.06 0.0
23 17:05 S 12 G 18 10.00 Partly Cloudy SCT050 86.4 70.5 59% 92 30.07 0.0
23 16:45 SW 9 10.00 Partly Cloudy SCT048 SCT060 92.5 71.2 50% 100 30.05 0.0
23 16:20 S 12 10.00 Partly Cloudy SCT048 SCT060 91.9 71.6 52% 99 30.05 0.0
23 16:05 S 9 G 16 10.00 Partly Cloudy SCT047 SCT060 92.3 71.6 51% 100 30.06 0.0
23 15:45 S 12 10.00 Partly Cloudy SCT055 90 71.4 55% 97 30.06 0.0
23 15:25 S 10 10.00 Partly Cloudy SCT045 SCT050 92.3 72 52% 100 30.06 0.0
23 15:05 S 9 10.00 Partly Cloudy SCT050 90.5 71.1 53% 97 30.07 0.0
23 14:45 SW 10 10.00 Partly Cloudy SCT039 SCT046 90.3 72.9 57% 99 30.07 0.0
23 14:25 SW 10 G 17 10.00 Partly Cloudy SCT039 90.9 72.7 55% 99 30.08 0.0
23 14:05 S 6 10.00 Partly Cloudy SCT037 89.6 73.2 59% 98 30.09 0.0
23 13:45 S 12 10.00 Partly Cloudy SCT037 SCT044 SCT050 91 73.2 56% 100 30.1 0.0
23 13:25 SW 7 10.00 Partly Cloudy SCT037 SCT045 89.4 73.6 60% 98 30.11 0.0
23 13:05 S 8 10.00 Partly Cloudy SCT036 SCT043 SCT048 88.9 73.8 61% 98 30.11 0.0
23 12:45 S 7 10.00 Partly Cloudy SCT036 SCT043 SCT048 88 72.7 61% 95 30.11 0.0
23 12:25 SW 5 10.00 Partly Cloudy SCT035 SCT045 SCT055 88.9 72.5 59% 96 30.11 0.0
23 12:05 S 7 10.00 Partly Cloudy SCT033 88 73 61% 96 30.12 0.0
23 11:45 SW 9 10.00 Partly Cloudy SCT031 88.5 72.7 60% 96 30.12 0.0
23 11:25 SW 7 10.00 Partly Cloudy SCT029 87.8 73 62% 95 30.11 0.0
23 11:05 SW 7 10.00 Partly Cloudy SCT027 86.2 72.5 64% 93 30.11 0.0
23 10:45 SW 6 10.00 Partly Cloudy SCT024 85.6 73.6 67% 93 30.11 0.0
23 10:25 SW 5 10.00 Fair CLR 84.4 73.8 71% 91 30.11 0.0
23 10:05 SW 5 10.00 Fair CLR 83.7 74.7 74% 91 30.11 0.0
23 09:45 S 6 10.00 Fair CLR 81.9 74.3 78% 88 30.11 0.0
23 09:25 S 5 10.00 Fair CLR 81.3 74.3 79% 87 30.11 0.0
23 09:05 S 5 10.00 Fair CLR 80.1 73.9 82% 85 30.11 0.0
23 08:45 S 5 10.00 Fair CLR 79.2 74.1 85% 83 30.11 0.0
23 08:25 S 3 10.00 Fair CLR 77.7 74.1 89% 80 30.11 0.0
23 08:05 Calm 10.00 Fair CLR 76.3 73.8 92% 76 30.11 0.0
23 07:45 Calm 7.00 Partly Cloudy SCT001 74.5 73 95% 30.11 0.0
23 07:25 S 3 7.00 Mostly Cloudy BKN001 74.1 72.7 95% 30.11 0.0
23 07:05 S 3 10.00 Partly Cloudy SCT001 73.9 72.7 96% 30.1 0.0
23 06:45 S 5 10.00 Partly Cloudy SCT003 73.4 72.5 97% 30.09 0.0
23 06:25 S 3 10.00 Mostly Cloudy BKN003 73.4 72 95% 30.09 0.0
23 06:05 Calm 10.00 Partly Cloudy SCT003 73.4 72 95% 30.08 0.0
23 05:45 Calm 10.00 Fair CLR 73.2 71.8 95% 30.08 0.0
23 05:25 S 5 10.00 Fair CLR 73.4 71.8 95% 30.08 0.0
23 05:05 S 5 10.00 Fair CLR 73.4 71.8 95% 30.07 0.0
23 04:45 S 5 10.00 Fair CLR 73.4 71.6 94% 30.07 0.0
23 04:25 S 5 10.00 Fair CLR 73.6 71.8 94% 30.06 0.0
23 04:05 S 3 10.00 Fair CLR 73.4 71.6 94% 30.06 0.0
23 03:45 Calm 10.00 Fair CLR 73.4 71.4 94% 30.06 0.0
23 03:25 S 3 10.00 Fair CLR 73.4 71.2 93% 30.05 0.0
23 03:05 S 3 10.00 Fair CLR 73.6 71.2 92% 30.05 0.0
23 02:45 S 6 10.00 Fair CLR 73.8 71.6 93% 30.06 0.0
23 02:25 S 6 10.00 Fair CLR 73.6 71.4 93% 30.06 0.0
23 02:05 S 6 10.00 Partly Cloudy SCT004 SCT055 73.9 70.7 90% 30.06 0.0
23 01:45 S 3 10.00 Partly Cloudy SCT016 SCT055 74.3 70.7 89% 30.07 0.0
23 01:25 Calm 10.00 Partly Cloudy SCT018 74.5 70.7 88% 30.07 0.0
23 00:45 S 3 10.00 Fair CLR 75.2 70.7 86% 75 30.07 0.0
23 00:25 S 3 10.00 Fair CLR 75.4 70.9 86% 75 30.07 0.0
23 00:05 S 5 10.00 Fair CLR 75.6 70.9 85% 76 30.06 0.0
22 23:45 S 5 10.00 Fair CLR 75.7 71.6 87% 76 30.07 0.0
22 23:25 S 3 10.00 Fair CLR 76.1 72.1 88% 76 30.07 0.0
22 23:05 S 3 10.00 Fair CLR 76.6 72.5 87% 78 30.08 0.0
22 22:45 S 8 10.00 Fair CLR 77.4 72.7 86% 79 30.08 0.0
22 22:25 S 8 10.00 Fair CLR 77.9 72.9 85% 80 30.07 0.0
22 22:05 S 7 10.00 Fair CLR 78.4 73 84% 81 30.06 0.0
22 21:45 S 7 10.00 Fair CLR 79 73.4 83% 82 30.05 0.0
22 21:25 S 10 10.00 Fair CLR 79.7 73.6 82% 84 30.04 0.0
22 21:05 S 8 10.00 Fair CLR 80.2 73.9 81% 85 30.03 0.0
22 20:45 S 7 10.00 Fair CLR 81.3 74.1 79% 87 30.02 0.0
22 20:25 S 5 10.00 Fair CLR 82 74.1 77% 88 30.02 0.0
22 20:05 S 7 10.00 Fair CLR 83.3 74.7 75% 91 30.01 0.0
22 19:45 SW 7 10.00 Fair CLR 84.6 73.6 70% 92 30 0.0
22 19:25 S 6 10.00 Fair CLR 85.1 74.8 71% 93 29.99 0.0
22 19:05 S 7 10.00 Fair CLR 85.1 75.6 73% 94 29.99 0.0
22 18:45 S 7 10.00 Fair CLR 85.1 75.9 74% 95 29.99 0.0
22 18:25 S 6 10.00 Fair CLR 84 75.7 76% 93 29.98 0.0
22 18:05 SW 5 10.00 Fair CLR 82.6 75.2 78% 90 29.99 0.0
22 17:45 S 9 10.00 Fair CLR 83.7 74.3 74% 91 29.99 0.0
22 17:25 SW 8 10.00 Partly Cloudy SCT004 83.7 75 75% 91 29.99 0.0
22 17:05 S 5 10.00 Fair CLR 82.2 74.3 77% 89 29.99 0.0
22 16:45 S 3 10.00 Fair CLR 81.7 74.5 79% 88 29.99 0.0
22 16:25 SW 12 10.00 Fair CLR 83.7 76.5 79% 93 30 0.0
22 16:05 SW 6 10.00 Partly Cloudy SCT003 SCT007 SCT080 82.9 75 77% 90 30 0.0
22 15:45 SW 6 7.00 Partly Cloudy SCT003 SCT036 SCT042 81 72.5 76% 86 30.01 0.0
22 15:25 S 12 10.00 Partly Cloudy SCT036 SCT042 87.1 72.7 62% 94 30.01 0.0
22 15:05 S 7 10.00 Partly Cloudy SCT036 87.6 73.8 64% 96 30.01 0.0
22 14:45 S 10 10.00 Partly Cloudy SCT037 SCT043 87.6 73.4 63% 96 30.02 0.0
22 14:25 S 8 10.00 Partly Cloudy SCT032 SCT041 SCT055 87.8 73.8 63% 96 30.03 0.0
22 14:05 S 8 10.00 Partly Cloudy SCT029 SCT035 SCT055 87.8 74.3 64% 97 30.03 0.0
22 13:45 SW 7 10.00 Partly Cloudy SCT029 SCT035 SCT050 86.2 73.6 66% 94 30.04 0.0
22 13:25 S 6 10.00 Partly Cloudy SCT035 SCT044 SCT050 86.4 72.5 63% 93 30.05 0.0
22 13:05 SW 7 10.00 Mostly Cloudy SCT026 SCT035 BKN044 85.5 73 66% 92 30.06 0.0
22 12:45 S 6 10.00 Mostly Cloudy BKN026 BKN031 85.3 73.2 67% 92 30.07 0.0
22 12:25 S 6 10.00 Mostly Cloudy SCT024 BKN031 84.6 72.7 68% 91 30.07 0.0
22 12:05 S 7 10.00 Mostly Cloudy SCT018 SCT024 BKN031 83.8 73.6 71% 91 30.07 0.0
22 11:45 S 5 10.00 Mostly Cloudy BKN016 BKN022 82.2 73.9 76% 88 30.07 0.0 0.13
Date Time (edt) Wind (mph) Vis. (mi.) Weather Sky Cond. Air Dwpt Max. Min. Relative Humidity Wind Chill (°F) Heat Index (°F) altimeter (in) sea level (mb) 1 hr 3 hr 6 hr
6 hour
Temperature (ºF) Pressure Precipitation (in)